Time,TemperatureF,DewpointF,PressureIn,WindDirection,WindDirectionDegrees,WindSpeedMPH,WindSpeedGustMPH,Humidity,HourlyPrecipIn,Conditions,Clouds,dailyrainin,SoftwareType,DateUTC
2013-03-10 00:00:00,39.3,34.0,30.17,SSW,211,0.0,0.0,81,0.00,,,0.00,Weather View 32 v70,2013-03-10 05:00:00,
2013-03-10 00:01:00,39.3,33.6,30.17,SSW,210,0.0,0.0,80,0.00,,,0.00,Weather View 32 v70,2013-03-10 05:01:00,
2013-03-10 00:06:00,39.2,33.9,30.17,SSW,211,0.0,0.0,81,0.00,,,0.00,Weather View 32 v70,2013-03-10 05:06:00,
2013-03-10 00:11:00,39.2,33.5,30.17,SSW,210,0.0,0.0,80,0.00,,,0.00,Weather View 32 v70,2013-03-10 05:11:00,
2013-03-10 00:16:00,39.0,34.0,30.17,SSW,208,0.0,0.0,82,0.00,,,0.00,Weather View 32 v70,2013-03-10 05:16:00,
2013-03-10 00:21:00,38.9,33.9,30.17,SSW,209,0.0,0.0,82,0.00,,,0.00,Weather View 32 v70,2013-03-10 05:21:00,
2013-03-10 00:26:00,38.7,33.7,30.17,SW,215,0.0,0.0,82,0.00,,,0.00,Weather View 32 v70,2013-03-10 05:26:00,
2013-03-10 00:31:00,38.7,33.7,30.17,SSW,212,0.0,0.0,82,0.00,,,0.00,Weather View 32 v70,2013-03-10 05:31:00,
2013-03-10 00:36:00,38.7,34.0,30.17,SSW,209,0.0,0.0,83,0.00,,,0.00,Weather View 32 v70,2013-03-10 05:36:00,
2013-03-10 00:41:00,38.6,33.9,30.18,SSW,209,0.0,0.0,83,0.00,,,0.00,Weather View 32 v70,2013-03-10 05:41:00,
2013-03-10 00:46:00,38.5,33.2,30.18,SW,218,0.0,0.0,81,0.00,,,0.00,Weather View 32 v70,2013-03-10 05:46:00,
2013-03-10 00:51:00,38.6,33.6,30.18,SSW,213,0.0,0.0,82,0.00,,,0.00,Weather View 32 v70,2013-03-10 05:51:00,
2013-03-10 00:56:00,38.5,33.8,30.18,SSW,206,0.0,0.0,83,0.00,,,0.00,Weather View 32 v70,2013-03-10 05:56:00,
2013-03-10 01:01:00,38.3,33.9,30.18,SSW,212,0.0,0.0,84,0.00,,,0.00,Weather View 32 v70,2013-03-10 06:01:00,
2013-03-10 01:06:00,38.3,33.9,30.17,SSW,212,0.0,0.0,84,0.00,,,0.00,Weather View 32 v70,2013-03-10 06:06:00,
2013-03-10 01:11:00,38.3,33.9,30.17,SSW,212,0.0,0.0,84,0.00,,,0.00,Weather View 32 v70,2013-03-10 06:11:00,
2013-03-10 01:16:00,38.2,33.5,30.17,SW,217,0.0,0.0,83,0.00,,,0.00,Weather View 32 v70,2013-03-10 06:16:00,
2013-03-10 01:21:00,38.3,32.7,30.17,SW,215,0.0,0.0,80,0.00,,,0.00,Weather View 32 v70,2013-03-10 06:21:00,
2013-03-10 01:26:00,38.3,33.3,30.17,SSW,204,0.0,0.0,82,0.00,,,0.00,Weather View 32 v70,2013-03-10 06:26:00,
2013-03-10 01:31:00,38.2,33.5,30.17,SSW,204,0.0,0.0,83,0.00,,,0.00,Weather View 32 v70,2013-03-10 06:31:00,
2013-03-10 01:36:00,38.2,33.2,30.17,SSW,203,0.0,0.0,82,0.00,,,0.00,Weather View 32 v70,2013-03-10 06:36:00,
2013-03-10 01:41:00,38.2,32.6,30.17,SSW,208,0.0,0.0,80,0.00,,,0.00,Weather View 32 v70,2013-03-10 06:41:00,
2013-03-10 01:46:00,38.1,32.8,30.17,SW,221,0.0,0.0,81,0.00,,,0.00,Weather View 32 v70,2013-03-10 06:46:00,
2013-03-10 01:51:00,38.2,33.2,30.16,SSW,210,0.0,0.0,82,0.00,,,0.00,Weather View 32 v70,2013-03-10 06:51:00,
2013-03-10 01:56:00,38.1,33.4,30.16,SSW,209,0.0,0.0,83,0.00,,,0.00,Weather View 32 v70,2013-03-10 06:56:00,
2013-03-10 03:01:00,38.0,32.7,30.16,SSW,210,0.0,0.0,81,0.00,,,0.00,Weather View 32 v70,2013-03-10 07:01:00,
2013-03-10 03:06:00,38.0,33.6,30.17,SSW,210,0.0,0.0,84,0.00,,,0.00,Weather View 32 v70,2013-03-10 07:06:00,
2013-03-10 03:11:00,38.0,33.3,30.16,SSW,211,0.0,0.0,83,0.00,,,0.00,Weather View 32 v70,2013-03-10 07:11:00,
2013-03-10 03:16:00,38.0,33.3,30.16,SSW,211,0.0,0.0,83,0.00,,,0.00,Weather View 32 v70,2013-03-10 07:16:00,
2013-03-10 03:21:00,38.2,33.5,30.16,SSW,201,0.0,0.0,83,0.00,,,0.00,Weather View 32 v70,2013-03-10 07:21:00,
2013-03-10 03:26:00,38.3,33.9,30.16,SSW,201,0.0,0.0,84,0.00,,,0.00,Weather View 32 v70,2013-03-10 07:26:00,
2013-03-10 03:31:00,38.4,34.0,30.16,SSW,201,0.0,0.0,84,0.00,,,0.00,Weather View 32 v70,2013-03-10 07:31:00,
2013-03-10 03:36:00,38.5,33.8,30.16,SSW,212,0.0,0.0,83,0.00,,,0.00,Weather View 32 v70,2013-03-10 07:36:00,
2013-03-10 03:41:00,38.7,33.1,30.15,SSW,211,0.0,0.0,80,0.00,,,0.00,Weather View 32 v70,2013-03-10 07:41:00,
2013-03-10 03:46:00,39.0,34.0,30.15,SSW,211,0.0,0.0,82,0.00,,,0.00,Weather View 32 v70,2013-03-10 07:46:00,
2013-03-10 03:51:00,39.2,34.5,30.15,SSW,210,0.0,0.0,83,0.00,,,0.00,Weather View 32 v70,2013-03-10 07:51:00,
2013-03-10 03:56:00,39.3,34.0,30.14,SW,219,0.0,0.0,81,0.00,,,0.00,Weather View 32 v70,2013-03-10 07:56:00,
2013-03-10 04:01:00,39.5,32.9,30.14,SW,219,0.0,0.0,77,0.00,,,0.00,Weather View 32 v70,2013-03-10 08:01:00,
2013-03-10 04:06:00,39.9,34.2,30.14,SW,220,0.0,0.0,80,0.00,,,0.00,Weather View 32 v70,2013-03-10 08:06:00,
2013-03-10 04:11:00,40.1,34.4,30.14,SW,215,0.0,0.0,80,0.00,,,0.00,Weather View 32 v70,2013-03-10 08:11:00,
2013-03-10 04:16:00,40.2,34.8,30.14,SSW,201,0.0,0.0,81,0.00,,,0.00,Weather View 32 v70,2013-03-10 08:16:00,
2013-03-10 04:21:00,40.1,33.8,30.14,SSW,201,0.0,0.0,78,0.00,,,0.00,Weather View 32 v70,2013-03-10 08:21:00,
2013-03-10 04:26:00,40.1,33.5,30.14,SSW,202,0.0,0.0,77,0.00,,,0.00,Weather View 32 v70,2013-03-10 08:26:00,
2013-03-10 04:31:00,40.0,34.6,30.14,SSW,204,0.0,0.0,81,0.00,,,0.00,Weather View 32 v70,2013-03-10 08:31:00,
2013-03-10 04:36:00,39.8,34.4,30.13,SSW,213,0.0,0.0,81,0.00,,,0.00,Weather View 32 v70,2013-03-10 08:36:00,
2013-03-10 04:41:00,39.6,33.3,30.12,SW,214,0.0,0.0,78,0.00,,,0.00,Weather View 32 v70,2013-03-10 08:41:00,
2013-03-10 04:46:00,39.6,33.6,30.13,SW,214,0.0,0.0,79,0.00,,,0.00,Weather View 32 v70,2013-03-10 08:46:00,
2013-03-10 04:51:00,39.5,33.5,30.12,SSW,206,0.0,0.0,79,0.00,,,0.00,Weather View 32 v70,2013-03-10 08:51:00,
2013-03-10 04:56:00,39.4,33.1,30.12,SSW,205,0.0,0.0,78,0.00,,,0.00,Weather View 32 v70,2013-03-10 08:56:00,
2013-03-10 05:01:00,39.4,34.0,30.13,SW,224,0.0,0.0,81,0.00,,,0.00,Weather View 32 v70,2013-03-10 09:01:00,
2013-03-10 05:06:00,39.6,33.3,30.12,SSW,210,0.0,0.0,78,0.00,,,0.00,Weather View 32 v70,2013-03-10 09:06:00,
2013-03-10 05:11:00,39.7,33.4,30.12,SW,216,0.0,0.0,78,0.00,,,0.00,Weather View 32 v70,2013-03-10 09:11:00,
2013-03-10 05:16:00,39.8,32.8,30.12,SSW,213,0.0,0.0,76,0.00,,,0.00,Weather View 32 v70,2013-03-10 09:16:00,
2013-03-10 05:21:00,39.8,33.8,30.12,SSW,212,0.0,0.0,79,0.00,,,0.00,Weather View 32 v70,2013-03-10 09:21:00,
2013-03-10 05:26:00,39.8,34.1,30.12,SSW,203,0.0,0.0,80,0.00,,,0.00,Weather View 32 v70,2013-03-10 09:26:00,
2013-03-10 05:31:00,39.7,33.7,30.12,SSE,159,0.0,0.0,79,0.00,,,0.00,Weather View 32 v70,2013-03-10 09:31:00,
2013-03-10 05:36:00,39.6,33.6,30.13,NE,38,0.0,0.0,79,0.00,,,0.00,Weather View 32 v70,2013-03-10 09:36:00,
2013-03-10 05:41:00,39.5,33.2,30.13,NE,37,0.0,0.0,78,0.00,,,0.00,Weather View 32 v70,2013-03-10 09:41:00,
2013-03-10 05:46:00,39.6,32.7,30.13,NE,36,0.0,0.0,76,0.00,,,0.00,Weather View 32 v70,2013-03-10 09:46:00,
2013-03-10 05:51:00,39.6,33.0,30.13,NE,37,0.0,0.0,77,0.00,,,0.00,Weather View 32 v70,2013-03-10 09:51:00,
2013-03-10 05:56:00,39.5,33.8,30.13,NE,34,0.0,0.0,80,0.00,,,0.00,Weather View 32 v70,2013-03-10 09:56:00,
2013-03-10 06:01:00,39.4,33.7,30.13,NNE,33,0.0,0.0,80,0.00,,,0.00,Weather View 32 v70,2013-03-10 10:01:00,
2013-03-10 06:06:00,39.2,33.9,30.13,East,80,0.0,0.0,81,0.00,,,0.00,Weather View 32 v70,2013-03-10 10:06:00,
2013-03-10 06:11:00,39.0,33.3,30.14,East,80,0.0,0.0,80,0.00,,,0.00,Weather View 32 v70,2013-03-10 10:11:00,
2013-03-10 06:16:00,38.8,33.2,30.14,SW,220,0.0,0.0,80,0.00,,,0.00,Weather View 32 v70,2013-03-10 10:16:00,
2013-03-10 06:21:00,38.8,33.2,30.14,SSW,208,0.0,0.0,80,0.00,,,0.00,Weather View 32 v70,2013-03-10 10:21:00,
2013-03-10 06:26:00,38.9,33.9,30.15,SSW,198,0.0,0.0,82,0.00,,,0.00,Weather View 32 v70,2013-03-10 10:26:00,
2013-03-10 06:31:00,39.0,34.0,30.15,SW,224,0.0,0.0,82,0.00,,,0.00,Weather View 32 v70,2013-03-10 10:31:00,
2013-03-10 06:37:00,39.1,33.4,30.15,SW,224,0.0,0.0,80,0.00,,,0.00,Weather View 32 v70,2013-03-10 10:37:00,
2013-03-10 06:42:00,39.0,34.0,30.15,NE,42,0.0,0.0,82,0.00,,,0.00,Weather View 32 v70,2013-03-10 10:42:00,
2013-03-10 06:47:00,38.8,33.8,30.15,NE,42,0.0,0.0,82,0.00,,,0.00,Weather View 32 v70,2013-03-10 10:47:00,
2013-03-10 06:52:00,38.6,33.6,30.15,NE,42,0.0,0.0,82,0.00,,,0.00,Weather View 32 v70,2013-03-10 10:52:00,
2013-03-10 06:57:00,38.4,33.4,30.15,SW,224,0.0,0.0,82,0.00,,,0.00,Weather View 32 v70,2013-03-10 10:57:00,
2013-03-10 07:02:00,38.5,33.8,30.16,South,180,0.0,0.0,83,0.00,,,0.00,Weather View 32 v70,2013-03-10 11:02:00,
2013-03-10 07:07:00,38.6,34.2,30.15,SW,218,0.0,0.0,84,0.00,,,0.00,Weather View 32 v70,2013-03-10 11:07:00,
2013-03-10 07:12:00,38.8,33.5,30.15,SW,226,0.0,0.0,81,0.00,,,0.00,Weather View 32 v70,2013-03-10 11:12:00,
2013-03-10 07:17:00,38.9,33.6,30.14,SW,226,0.0,0.0,81,0.00,,,0.00,Weather View 32 v70,2013-03-10 11:17:00,
2013-03-10 07:22:00,39.0,34.0,30.14,SW,226,0.0,0.0,82,0.00,,,0.00,Weather View 32 v70,2013-03-10 11:22:00,
2013-03-10 07:27:00,39.0,34.3,30.15,SW,226,0.0,0.0,83,0.00,,,0.00,Weather View 32 v70,2013-03-10 11:27:00,
2013-03-10 07:32:00,38.8,33.8,30.16,SSW,210,0.0,0.0,82,0.00,,,0.00,Weather View 32 v70,2013-03-10 11:32:00,
2013-03-10 07:37:00,39.0,33.7,30.16,SSW,211,0.0,0.0,81,0.00,,,0.00,Weather View 32 v70,2013-03-10 11:37:00,
2013-03-10 07:42:00,39.3,34.3,30.15,SSW,207,0.0,0.0,82,0.00,,,0.00,Weather View 32 v70,2013-03-10 11:42:00,
2013-03-10 07:47:00,39.6,34.6,30.15,SSW,208,0.0,0.0,82,0.00,,,0.00,Weather View 32 v70,2013-03-10 11:47:00,
2013-03-10 07:52:00,39.7,35.0,30.15,SSW,208,0.0,0.0,83,0.00,,,0.00,Weather View 32 v70,2013-03-10 11:52:00,
2013-03-10 07:57:00,39.7,34.7,30.14,West,259,0.0,0.0,82,0.00,,,0.00,Weather View 32 v70,2013-03-10 11:57:00,
2013-03-10 08:02:00,39.6,34.2,30.14,NNE,26,0.0,0.0,81,0.00,,,0.00,Weather View 32 v70,2013-03-10 12:02:00,
2013-03-10 08:07:00,39.7,33.4,30.14,NNE,24,0.0,0.0,78,0.00,,,0.00,Weather View 32 v70,2013-03-10 12:07:00,
2013-03-10 08:12:00,39.8,33.8,30.15,NE,40,0.0,0.0,79,0.00,,,0.00,Weather View 32 v70,2013-03-10 12:12:00,
2013-03-10 08:17:00,40.0,33.4,30.16,SW,226,3.0,4.0,77,0.00,,,0.00,Weather View 32 v70,2013-03-10 12:17:00,
2013-03-10 08:22:00,40.8,33.8,30.17,SW,214,0.0,4.0,76,0.00,,,0.00,Weather View 32 v70,2013-03-10 12:22:00,
2013-03-10 08:27:00,41.3,33.6,30.17,SW,218,0.0,4.0,74,0.00,,,0.00,Weather View 32 v70,2013-03-10 12:27:00,
2013-03-10 08:32:00,41.7,34.0,30.17,SW,222,0.0,4.0,74,0.00,,,0.00,Weather View 32 v70,2013-03-10 12:32:00,
2013-03-10 08:37:00,41.9,34.5,30.18,SW,221,0.0,4.0,75,0.00,,,0.00,Weather View 32 v70,2013-03-10 12:37:00,
2013-03-10 08:42:00,42.0,35.0,30.18,SW,219,0.0,4.0,76,0.00,,,0.00,Weather View 32 v70,2013-03-10 12:42:00,
2013-03-10 08:47:00,42.2,34.8,30.17,SE,135,0.0,4.0,75,0.00,,,0.00,Weather View 32 v70,2013-03-10 12:47:00,
2013-03-10 08:52:00,42.4,35.7,30.17,NW,306,0.0,4.0,77,0.00,,,0.00,Weather View 32 v70,2013-03-10 12:52:00,
2013-03-10 08:57:00,42.4,35.4,30.17,NE,55,0.0,4.0,76,0.00,,,0.00,Weather View 32 v70,2013-03-10 12:57:00,
2013-03-10 09:02:00,42.6,35.2,30.17,SW,222,0.0,4.0,75,0.00,,,0.00,Weather View 32 v70,2013-03-10 13:02:00,
2013-03-10 09:07:00,43.0,34.2,30.16,WSW,247,0.0,4.0,71,0.00,,,0.00,Weather View 32 v70,2013-03-10 13:07:00,
2013-03-10 09:12:00,43.8,35.7,30.17,NE,41,0.0,4.0,73,0.00,,,0.00,Weather View 32 v70,2013-03-10 13:12:00,
2013-03-10 09:17:00,44.0,34.5,30.17,NE,41,0.0,4.0,69,0.00,,,0.00,Weather View 32 v70,2013-03-10 13:17:00,
2013-03-10 09:22:00,44.3,34.4,30.17,WSW,248,0.0,0.0,68,0.00,,,0.00,Weather View 32 v70,2013-03-10 13:22:00,
2013-03-10 09:27:00,44.7,34.8,30.17,SSW,211,0.0,0.0,68,0.00,,,0.00,Weather View 32 v70,2013-03-10 13:27:00,
2013-03-10 09:32:00,45.0,33.9,30.17,SSW,211,0.0,0.0,65,0.00,,,0.00,Weather View 32 v70,2013-03-10 13:32:00,
2013-03-10 09:37:00,45.2,34.1,30.18,SW,217,0.0,0.0,65,0.00,,,0.00,Weather View 32 v70,2013-03-10 13:37:00,
2013-03-10 09:42:00,45.4,33.1,30.18,SSE,159,0.0,0.0,62,0.00,,,0.00,Weather View 32 v70,2013-03-10 13:42:00,
2013-03-10 09:47:00,45.6,33.7,30.18,SSE,153,0.0,0.0,63,0.00,,,0.00,Weather View 32 v70,2013-03-10 13:47:00,
2013-03-10 09:52:00,45.6,34.1,30.18,SSW,205,0.0,0.0,64,0.00,,,0.00,Weather View 32 v70,2013-03-10 13:52:00,
2013-03-10 09:57:00,45.7,34.2,30.18,SSW,205,0.0,0.0,64,0.00,,,0.00,Weather View 32 v70,2013-03-10 13:57:00,
2013-03-10 10:03:00,45.9,33.2,30.18,SSW,208,0.0,0.0,61,0.00,,,0.00,Weather View 32 v70,2013-03-10 14:03:00,
2013-03-10 10:08:00,46.2,32.6,30.18,North,353,0.0,0.0,59,0.00,,,0.00,Weather View 32 v70,2013-03-10 14:08:00,
2013-03-10 10:13:00,46.8,32.8,30.18,NNE,12,0.0,1.0,58,0.00,,,0.00,Weather View 32 v70,2013-03-10 14:13:00,
2013-03-10 10:18:00,47.2,34.0,30.18,North,359,0.0,1.0,60,0.00,,,0.00,Weather View 32 v70,2013-03-10 14:18:00,
2013-03-10 10:23:00,47.6,33.1,30.18,North,355,0.0,3.0,57,0.00,,,0.00,Weather View 32 v70,2013-03-10 14:23:00,
2013-03-10 10:28:00,47.9,33.8,30.18,NNE,18,0.0,3.0,58,0.00,,,0.00,Weather View 32 v70,2013-03-10 14:28:00,
2013-03-10 10:33:00,48.3,33.3,30.18,South,176,0.0,3.0,56,0.00,,,0.00,Weather View 32 v70,2013-03-10 14:33:00,
2013-03-10 10:38:00,48.7,33.7,30.18,SSW,213,0.0,3.0,56,0.00,,,0.00,Weather View 32 v70,2013-03-10 14:38:00,
2013-03-10 10:43:00,49.1,33.1,30.18,NNE,13,0.0,3.0,54,0.00,,,0.00,Weather View 32 v70,2013-03-10 14:43:00,
2013-03-10 10:48:00,49.5,33.0,30.18,SE,129,0.0,3.0,53,0.00,,,0.00,Weather View 32 v70,2013-03-10 14:48:00,
2013-03-10 10:53:00,49.9,32.9,30.18,ENE,62,0.0,3.0,52,0.00,,,0.00,Weather View 32 v70,2013-03-10 14:53:00,
2013-03-10 10:58:00,50.3,33.3,30.18,North,7,0.0,6.0,52,0.00,,,0.00,Weather View 32 v70,2013-03-10 14:58:00,
2013-03-10 11:03:00,51.0,33.5,30.18,North,10,0.0,6.0,51,0.00,,,0.00,Weather View 32 v70,2013-03-10 15:03:00,
2013-03-10 11:08:00,51.5,33.9,30.17,ENE,73,2.0,7.0,51,0.00,,,0.00,Weather View 32 v70,2013-03-10 15:08:00,
2013-03-10 11:13:00,51.8,33.7,30.17,SW,217,1.0,8.0,50,0.00,,,0.00,Weather View 32 v70,2013-03-10 15:13:00,
2013-03-10 11:18:00,52.4,34.3,30.17,ENE,75,1.0,8.0,50,0.00,,,0.00,Weather View 32 v70,2013-03-10 15:18:00,
2013-03-10 11:23:00,52.8,33.6,30.17,SSE,148,0.0,8.0,48,0.00,,,0.00,Weather View 32 v70,2013-03-10 15:23:00,
2013-03-10 11:28:00,52.9,33.7,30.16,NE,42,0.0,8.0,48,0.00,,,0.00,Weather View 32 v70,2013-03-10 15:28:00,
2013-03-10 11:33:00,53.1,34.4,30.16,NE,39,0.0,8.0,49,0.00,,,0.00,Weather View 32 v70,2013-03-10 15:33:00,
2013-03-10 11:38:00,53.0,33.8,30.16,NE,41,0.0,8.0,48,0.00,,,0.00,Weather View 32 v70,2013-03-10 15:38:00,
2013-03-10 11:43:00,52.9,33.2,30.16,SE,146,2.0,8.0,47,0.00,,,0.00,Weather View 32 v70,2013-03-10 15:43:00,
2013-03-10 11:48:00,53.0,33.3,30.15,East,97,4.0,8.0,47,0.00,,,0.00,Weather View 32 v70,2013-03-10 15:48:00,
2013-03-10 11:53:00,53.2,33.5,30.15,SSE,157,8.0,10.0,47,0.00,,,0.00,Weather View 32 v70,2013-03-10 15:53:00,
2013-03-10 11:58:00,53.6,33.8,30.15,East,88,0.0,10.0,47,0.00,,,0.00,Weather View 32 v70,2013-03-10 15:58:00,
2013-03-10 12:03:00,54.2,33.8,30.15,NE,34,0.0,10.0,46,0.00,,,0.00,Weather View 32 v70,2013-03-10 16:03:00,
2013-03-10 12:08:00,54.5,33.6,30.14,SSW,206,2.0,10.0,45,0.00,,,0.00,Weather View 32 v70,2013-03-10 16:08:00,
2013-03-10 12:13:00,54.7,33.7,30.14,East,83,3.0,10.0,45,0.00,,,0.00,Weather View 32 v70,2013-03-10 16:13:00,
2013-03-10 12:18:00,55.3,34.3,30.15,ENE,77,0.0,10.0,45,0.00,,,0.00,Weather View 32 v70,2013-03-10 16:18:00,
2013-03-10 12:23:00,55.4,33.8,30.14,SSE,159,2.0,13.0,44,0.00,,,0.00,Weather View 32 v70,2013-03-10 16:23:00,
2013-03-10 12:29:00,55.6,34.0,30.14,ENE,61,2.0,13.0,44,0.00,,,0.00,Weather View 32 v70,2013-03-10 16:29:00,
2013-03-10 12:33:00,55.8,34.2,30.14,NE,36,3.0,13.0,44,0.00,,,0.00,Weather View 32 v70,2013-03-10 16:33:00,
2013-03-10 12:39:00,55.6,33.4,30.14,SSW,196,5.0,13.0,43,0.00,,,0.00,Weather View 32 v70,2013-03-10 16:39:00,
2013-03-10 12:44:00,55.6,33.4,30.14,ENE,78,0.0,13.0,43,0.00,,,0.00,Weather View 32 v70,2013-03-10 16:44:00,
2013-03-10 12:49:00,55.8,33.6,30.14,NNE,30,0.0,13.0,43,0.00,,,0.00,Weather View 32 v70,2013-03-10 16:49:00,
2013-03-10 12:54:00,56.5,34.2,30.14,West,281,0.0,13.0,43,0.00,,,0.00,Weather View 32 v70,2013-03-10 16:54:00,
2013-03-10 12:59:00,57.1,33.6,30.14,NE,54,4.0,13.0,41,0.00,,,0.00,Weather View 32 v70,2013-03-10 16:59:00,
2013-03-10 13:04:00,56.9,33.4,30.14,ENE,66,7.0,13.0,41,0.00,,,0.00,Weather View 32 v70,2013-03-10 17:04:00,
2013-03-10 13:09:00,57.7,33.5,30.14,SW,217,4.0,13.0,40,0.00,,,0.00,Weather View 32 v70,2013-03-10 17:09:00,
2013-03-10 13:14:00,57.7,33.5,30.14,East,81,2.0,13.0,40,0.00,,,0.00,Weather View 32 v70,2013-03-10 17:14:00,
2013-03-10 13:19:00,58.5,33.6,30.14,SSE,158,2.0,13.0,39,0.00,,,0.00,Weather View 32 v70,2013-03-10 17:19:00,
2013-03-10 13:24:00,59.4,33.7,30.14,East,91,4.0,11.0,38,0.00,,,0.00,Weather View 32 v70,2013-03-10 17:24:00,
2013-03-10 13:29:00,59.0,33.4,30.13,SSW,205,5.0,11.0,38,0.00,,,0.00,Weather View 32 v70,2013-03-10 17:29:00,
2013-03-10 13:34:00,59.6,33.2,30.13,SSE,160,2.0,11.0,37,0.00,,,0.00,Weather View 32 v70,2013-03-10 17:34:00,
2013-03-10 13:39:00,59.3,33.0,30.13,SSE,153,7.0,11.0,37,0.00,,,0.00,Weather View 32 v70,2013-03-10 17:39:00,
2013-03-10 13:44:00,59.8,34.1,30.12,ENE,75,1.0,11.0,38,0.00,,,0.00,Weather View 32 v70,2013-03-10 17:44:00,
2013-03-10 13:49:00,59.4,33.1,30.12,WNW,289,3.0,11.0,37,0.00,,,0.00,Weather View 32 v70,2013-03-10 17:49:00,
2013-03-10 13:54:00,59.7,34.0,30.12,South,173,2.0,11.0,38,0.00,,,0.00,Weather View 32 v70,2013-03-10 17:54:00,
2013-03-10 13:59:00,60.4,34.6,30.11,South,186,0.0,11.0,38,0.00,,,0.00,Weather View 32 v70,2013-03-10 17:59:00,
2013-03-10 14:04:00,60.8,33.6,30.12,SSE,153,6.0,8.0,36,0.00,,,0.00,Weather View 32 v70,2013-03-10 18:04:00,
2013-03-10 14:09:00,60.6,34.1,30.12,West,273,1.0,9.0,37,0.00,,,0.00,Weather View 32 v70,2013-03-10 18:09:00,
2013-03-10 14:14:00,60.5,34.0,30.12,East,84,2.0,9.0,37,0.00,,,0.00,Weather View 32 v70,2013-03-10 18:14:00,
2013-03-10 14:19:00,60.5,33.4,30.11,ENE,72,5.0,9.0,36,0.00,,,0.00,Weather View 32 v70,2013-03-10 18:19:00,
2013-03-10 14:24:00,60.6,34.8,30.11,ENE,62,4.0,11.0,38,0.00,,,0.00,Weather View 32 v70,2013-03-10 18:24:00,
2013-03-10 14:29:00,61.0,35.2,30.11,SW,226,1.0,11.0,38,0.00,,,0.00,Weather View 32 v70,2013-03-10 18:29:00,
2013-03-10 14:34:00,61.2,34.7,30.11,WSW,252,2.0,11.0,37,0.00,,,0.00,Weather View 32 v70,2013-03-10 18:34:00,
2013-03-10 14:39:00,60.8,34.3,30.10,SE,127,4.0,11.0,37,0.00,,,0.00,Weather View 32 v70,2013-03-10 18:39:00,
2013-03-10 14:44:00,61.1,34.6,30.10,West,266,1.0,11.0,37,0.00,,,0.00,Weather View 32 v70,2013-03-10 18:44:00,
2013-03-10 14:49:00,61.6,35.7,30.10,ENE,77,4.0,11.0,38,0.00,,,0.00,Weather View 32 v70,2013-03-10 18:49:00,
2013-03-10 14:54:00,61.9,34.6,30.10,East,92,3.0,11.0,36,0.00,,,0.00,Weather View 32 v70,2013-03-10 18:54:00,
2013-03-10 14:59:00,62.1,35.5,30.10,East,91,2.0,11.0,37,0.00,,,0.00,Weather View 32 v70,2013-03-10 18:59:00,
2013-03-10 15:04:00,61.7,34.4,30.10,NNE,32,3.0,11.0,36,0.00,,,0.00,Weather View 32 v70,2013-03-10 19:04:00,
2013-03-10 15:09:00,61.7,33.7,30.10,SE,137,0.0,11.0,35,0.00,,,0.00,Weather View 32 v70,2013-03-10 19:09:00,
2013-03-10 15:14:00,61.2,33.3,30.10,NE,45,3.0,11.0,35,0.00,,,0.00,Weather View 32 v70,2013-03-10 19:14:00,
2013-03-10 15:19:00,60.2,33.1,30.09,ENE,67,5.0,11.0,36,0.00,,,0.00,Weather View 32 v70,2013-03-10 19:19:00,
2013-03-10 15:24:00,60.5,34.0,30.10,East,85,3.0,11.0,37,0.00,,,0.00,Weather View 32 v70,2013-03-10 19:24:00,
2013-03-10 15:29:00,61.1,34.6,30.10,SW,219,2.0,11.0,37,0.00,,,0.00,Weather View 32 v70,2013-03-10 19:29:00,
2013-03-10 15:35:00,60.7,33.5,30.09,ESE,112,3.0,11.0,36,0.00,,,0.00,Weather View 32 v70,2013-03-10 19:35:00,
2013-03-10 15:40:00,60.7,33.5,30.09,ESE,112,2.0,11.0,36,0.00,,,0.00,Weather View 32 v70,2013-03-10 19:40:00,
2013-03-10 15:45:00,59.9,32.8,30.09,East,96,4.0,11.0,36,0.00,,,0.00,Weather View 32 v70,2013-03-10 19:45:00,
2013-03-10 15:50:00,60.3,33.2,30.09,ESE,121,0.0,11.0,36,0.00,,,0.00,Weather View 32 v70,2013-03-10 19:50:00,
2013-03-10 15:55:00,61.2,34.0,30.09,South,184,2.0,11.0,36,0.00,,,0.00,Weather View 32 v70,2013-03-10 19:55:00,
2013-03-10 16:00:00,61.2,32.5,30.09,East,94,1.0,11.0,34,0.00,,,0.00,Weather View 32 v70,2013-03-10 20:00:00,
2013-03-10 16:05:00,59.9,32.1,30.10,East,92,2.0,12.0,35,0.00,,,0.00,Weather View 32 v70,2013-03-10 20:05:00,
2013-03-10 16:10:00,59.5,32.5,30.10,ENE,71,2.0,12.0,36,0.00,,,0.00,Weather View 32 v70,2013-03-10 20:10:00,
2013-03-10 16:15:00,59.2,32.2,30.10,ESE,105,0.0,12.0,36,0.00,,,0.00,Weather View 32 v70,2013-03-10 20:15:00,
2013-03-10 16:20:00,59.3,32.3,30.09,ENE,75,4.0,12.0,36,0.00,,,0.00,Weather View 32 v70,2013-03-10 20:20:00,
2013-03-10 16:25:00,59.2,32.2,30.09,ESE,106,5.0,12.0,36,0.00,,,0.00,Weather View 32 v70,2013-03-10 20:25:00,
2013-03-10 16:30:00,58.8,31.8,30.10,ENE,61,1.0,12.0,36,0.00,,,0.00,Weather View 32 v70,2013-03-10 20:30:00,
2013-03-10 16:35:00,59.4,33.1,30.09,ENE,72,3.0,12.0,37,0.00,,,0.00,Weather View 32 v70,2013-03-10 20:35:00,
2013-03-10 16:40:00,60.8,34.3,30.09,ENE,78,4.0,12.0,37,0.00,,,0.00,Weather View 32 v70,2013-03-10 20:40:00,
2013-03-10 16:45:00,61.3,33.4,30.09,East,84,1.0,12.0,35,0.00,,,0.00,Weather View 32 v70,2013-03-10 20:45:00,
2013-03-10 16:50:00,61.8,33.8,30.09,ESE,115,3.0,12.0,35,0.00,,,0.00,Weather View 32 v70,2013-03-10 20:50:00,
2013-03-10 16:55:00,61.8,33.1,30.09,ESE,111,2.0,12.0,34,0.00,,,0.00,Weather View 32 v70,2013-03-10 20:55:00,
2013-03-10 17:00:00,61.8,33.1,30.09,East,101,5.0,12.0,34,0.00,,,0.00,Weather View 32 v70,2013-03-10 21:00:00,
2013-03-10 17:05:00,61.4,32.7,30.09,SSW,193,0.0,11.0,34,0.00,,,0.00,Weather View 32 v70,2013-03-10 21:05:00,
2013-03-10 17:10:00,60.9,32.3,30.09,East,101,3.0,10.0,34,0.00,,,0.00,Weather View 32 v70,2013-03-10 21:10:00,
2013-03-10 17:15:00,60.5,32.7,30.09,ENE,67,2.0,11.0,35,0.00,,,0.00,Weather View 32 v70,2013-03-10 21:15:00,
2013-03-10 17:20:00,60.6,33.4,30.09,SW,214,1.0,11.0,36,0.00,,,0.00,Weather View 32 v70,2013-03-10 21:20:00,
2013-03-10 17:25:00,60.0,32.9,30.09,SSW,209,4.0,11.0,36,0.00,,,0.00,Weather View 32 v70,2013-03-10 21:25:00,
2013-03-10 17:30:00,59.0,33.4,30.09,NW,315,0.0,11.0,38,0.00,,,0.00,Weather View 32 v70,2013-03-10 21:30:00,
2013-03-10 17:35:00,58.2,32.7,30.08,NW,312,2.0,11.0,38,0.00,,,0.00,Weather View 32 v70,2013-03-10 21:35:00,
2013-03-10 17:40:00,57.3,31.9,30.08,East,84,6.0,13.0,38,0.00,,,0.00,Weather View 32 v70,2013-03-10 21:40:00,
2013-03-10 17:45:00,57.0,32.2,30.09,East,93,4.0,13.0,39,0.00,,,0.00,Weather View 32 v70,2013-03-10 21:45:00,
2013-03-10 17:50:00,56.9,32.8,30.09,NE,39,3.0,13.0,40,0.00,,,0.00,Weather View 32 v70,2013-03-10 21:50:00,
2013-03-10 17:55:00,56.7,32.6,30.09,ENE,69,3.0,13.0,40,0.00,,,0.00,Weather View 32 v70,2013-03-10 21:55:00,
2013-03-10 18:00:00,56.8,33.3,30.09,ESE,104,2.0,13.0,41,0.00,,,0.00,Weather View 32 v70,2013-03-10 22:00:00,
2013-03-10 18:06:00,56.5,33.0,30.09,ENE,75,4.0,13.0,41,0.00,,,0.00,Weather View 32 v70,2013-03-10 22:06:00,
2013-03-10 18:11:00,56.6,33.7,30.09,SSE,156,0.0,13.0,42,0.00,,,0.00,Weather View 32 v70,2013-03-10 22:11:00,
2013-03-10 18:16:00,56.3,33.5,30.08,South,182,3.0,13.0,42,0.00,,,0.00,Weather View 32 v70,2013-03-10 22:16:00,
2013-03-10 18:21:00,56.1,33.3,30.09,SW,235,0.0,13.0,42,0.00,,,0.00,Weather View 32 v70,2013-03-10 22:21:00,
2013-03-10 18:26:00,56.0,33.8,30.08,SSE,168,1.0,13.0,43,0.00,,,0.00,Weather View 32 v70,2013-03-10 22:26:00,
2013-03-10 18:31:00,55.8,33.6,30.09,ESE,106,1.0,13.0,43,0.00,,,0.00,Weather View 32 v70,2013-03-10 22:31:00,
2013-03-10 18:36:00,55.5,33.3,30.08,ENE,66,2.0,13.0,43,0.00,,,0.00,Weather View 32 v70,2013-03-10 22:36:00,
2013-03-10 18:42:00,55.3,33.7,30.08,East,99,4.0,12.0,44,0.00,,,0.00,Weather View 32 v70,2013-03-10 22:42:00,
2013-03-10 18:47:00,55.1,33.5,30.08,NE,56,0.0,12.0,44,0.00,,,0.00,Weather View 32 v70,2013-03-10 22:47:00,
2013-03-10 18:52:00,55.0,34.0,30.09,SW,228,0.0,12.0,45,0.00,,,0.00,Weather View 32 v70,2013-03-10 22:52:00,
2013-03-10 18:57:00,54.6,33.6,30.09,ENE,77,5.0,12.0,45,0.00,,,0.00,Weather View 32 v70,2013-03-10 22:57:00,
2013-03-10 19:02:00,54.5,34.1,30.09,East,88,2.0,12.0,46,0.00,,,0.00,Weather View 32 v70,2013-03-10 23:02:00,
2013-03-10 19:07:00,54.4,34.5,30.10,ENE,71,0.0,11.0,47,0.00,,,0.00,Weather View 32 v70,2013-03-10 23:07:00,
2013-03-10 19:12:00,54.2,34.4,30.10,ESE,108,2.0,11.0,47,0.00,,,0.00,Weather View 32 v70,2013-03-10 23:12:00,
2013-03-10 19:17:00,54.1,34.8,30.11,NE,40,0.0,11.0,48,0.00,,,0.00,Weather View 32 v70,2013-03-10 23:17:00,
2013-03-10 19:22:00,54.0,34.7,30.10,SSW,202,0.0,11.0,48,0.00,,,0.00,Weather View 32 v70,2013-03-10 23:22:00,
2013-03-10 19:27:00,53.8,35.6,30.10,West,269,0.0,11.0,50,0.00,,,0.00,Weather View 32 v70,2013-03-10 23:27:00,
2013-03-10 19:32:00,53.4,35.2,30.10,East,99,0.0,11.0,50,0.00,,,0.00,Weather View 32 v70,2013-03-10 23:32:00,
2013-03-10 19:37:00,53.1,35.4,30.10,WNW,293,0.0,11.0,51,0.00,,,0.00,Weather View 32 v70,2013-03-10 23:37:00,
2013-03-10 19:43:00,52.8,35.6,30.10,East,83,0.0,11.0,52,0.00,,,0.00,Weather View 32 v70,2013-03-10 23:43:00,
2013-03-10 19:48:00,52.8,35.6,30.10,NNW,348,0.0,11.0,52,0.00,,,0.00,Weather View 32 v70,2013-03-10 23:48:00,
2013-03-10 19:53:00,52.4,35.7,30.09,SW,221,2.0,11.0,53,0.00,,,0.00,Weather View 32 v70,2013-03-10 23:53:00,
2013-03-10 19:58:00,52.4,34.8,30.09,East,96,2.0,9.0,51,0.00,,,0.00,Weather View 32 v70,2013-03-10 23:58:00,
2013-03-10 20:03:00,52.6,35.4,30.09,West,264,0.0,9.0,52,0.00,,,0.00,Weather View 32 v70,2013-03-11 00:03:00,
2013-03-10 20:08:00,52.7,35.5,30.08,SE,126,0.0,9.0,52,0.00,,,0.00,Weather View 32 v70,2013-03-11 00:08:00,
2013-03-10 20:13:00,52.6,35.9,30.09,ESE,113,8.0,8.0,53,0.00,,,0.00,Weather View 32 v70,2013-03-11 00:13:00,
2013-03-10 20:18:00,52.6,35.4,30.09,East,89,0.0,8.0,52,0.00,,,0.00,Weather View 32 v70,2013-03-11 00:18:00,
2013-03-10 20:23:00,52.3,36.1,30.09,WSW,245,3.0,8.0,54,0.00,,,0.00,Weather View 32 v70,2013-03-11 00:23:00,
2013-03-10 20:28:00,52.4,36.2,30.09,East,80,0.0,8.0,54,0.00,,,0.00,Weather View 32 v70,2013-03-11 00:28:00,
2013-03-10 20:33:00,52.5,35.8,30.09,ENE,71,2.0,13.0,53,0.00,,,0.00,Weather View 32 v70,2013-03-11 00:33:00,
2013-03-10 20:38:00,52.6,36.4,30.09,NE,56,0.0,13.0,54,0.00,,,0.00,Weather View 32 v70,2013-03-11 00:38:00,
2013-03-10 20:43:00,52.5,35.8,30.09,NNE,17,0.0,13.0,53,0.00,,,0.00,Weather View 32 v70,2013-03-11 00:43:00,
2013-03-10 20:48:00,52.2,36.5,30.09,ESE,110,0.0,13.0,55,0.00,,,0.00,Weather View 32 v70,2013-03-11 00:48:00,
2013-03-10 20:53:00,51.8,36.1,30.09,SW,234,1.0,13.0,55,0.00,,,0.00,Weather View 32 v70,2013-03-11 00:53:00,
2013-03-10 20:58:00,51.5,36.3,30.09,ESE,103,0.0,13.0,56,0.00,,,0.00,Weather View 32 v70,2013-03-11 00:58:00,
2013-03-10 21:03:00,51.0,36.7,30.09,WSW,250,0.0,13.0,58,0.00,,,0.00,Weather View 32 v70,2013-03-11 01:03:00,
2013-03-10 21:08:00,50.9,36.2,30.09,SE,125,6.0,13.0,57,0.00,,,0.00,Weather View 32 v70,2013-03-11 01:08:00,
2013-03-10 21:13:00,51.1,36.4,30.09,East,93,0.0,13.0,57,0.00,,,0.00,Weather View 32 v70,2013-03-11 01:13:00,
2013-03-10 21:18:00,51.4,36.2,30.09,NW,307,0.0,13.0,56,0.00,,,0.00,Weather View 32 v70,2013-03-11 01:18:00,
2013-03-10 21:23:00,51.5,36.3,30.09,SSE,147,0.0,13.0,56,0.00,,,0.00,Weather View 32 v70,2013-03-11 01:23:00,
2013-03-10 21:28:00,52.2,36.0,30.09,SSE,147,1.0,13.0,54,0.00,,,0.00,Weather View 32 v70,2013-03-11 01:28:00,
2013-03-10 21:33:00,52.3,36.1,30.09,West,271,0.0,12.0,54,0.00,,,0.00,Weather View 32 v70,2013-03-11 01:33:00,
2013-03-10 21:38:00,51.5,36.3,30.09,SE,135,3.0,12.0,56,0.00,,,0.00,Weather View 32 v70,2013-03-11 01:38:00,
2013-03-10 21:43:00,51.2,36.5,30.09,SW,225,2.0,12.0,57,0.00,,,0.00,Weather View 32 v70,2013-03-11 01:43:00,
2013-03-10 21:48:00,51.1,35.9,30.09,East,90,3.0,12.0,56,0.00,,,0.00,Weather View 32 v70,2013-03-11 01:48:00,
2013-03-10 21:54:00,51.4,36.2,30.09,NNE,29,0.0,12.0,56,0.00,,,0.00,Weather View 32 v70,2013-03-11 01:54:00,
2013-03-10 21:59:00,50.8,36.1,30.09,East,83,0.0,12.0,57,0.00,,,0.00,Weather View 32 v70,2013-03-11 01:59:00,
2013-03-10 22:04:00,50.1,35.9,30.09,NNE,21,0.0,12.0,58,0.00,,,0.00,Weather View 32 v70,2013-03-11 02:04:00,
2013-03-10 22:09:00,49.9,36.1,30.09,East,101,2.0,12.0,59,0.00,,,0.00,Weather View 32 v70,2013-03-11 02:09:00,
2013-03-10 22:14:00,50.0,36.2,30.09,NNE,24,0.0,12.0,59,0.00,,,0.00,Weather View 32 v70,2013-03-11 02:14:00,
2013-03-10 22:19:00,50.2,36.0,30.09,NE,49,2.0,12.0,58,0.00,,,0.00,Weather View 32 v70,2013-03-11 02:19:00,
2013-03-10 22:24:00,50.5,36.2,30.09,NNW,348,0.0,15.0,58,0.00,,,0.00,Weather View 32 v70,2013-03-11 02:24:00,
2013-03-10 22:29:00,50.9,36.6,30.09,East,97,4.0,15.0,58,0.00,,,0.00,Weather View 32 v70,2013-03-11 02:29:00,
2013-03-10 22:34:00,50.4,36.6,30.09,SW,236,2.0,15.0,59,0.00,,,0.00,Weather View 32 v70,2013-03-11 02:34:00,
2013-03-10 22:39:00,50.2,36.4,30.09,SW,222,2.0,15.0,59,0.00,,,0.00,Weather View 32 v70,2013-03-11 02:39:00,
2013-03-10 22:44:00,50.4,36.6,30.09,SW,231,0.0,15.0,59,0.00,,,0.00,Weather View 32 v70,2013-03-11 02:44:00,
2013-03-10 22:49:00,50.3,36.5,30.09,SW,219,2.0,15.0,59,0.00,,,0.00,Weather View 32 v70,2013-03-11 02:49:00,
2013-03-10 22:54:00,50.1,36.3,30.09,SSW,195,0.0,15.0,59,0.00,,,0.00,Weather View 32 v70,2013-03-11 02:54:00,
2013-03-10 22:59:00,50.6,36.3,30.10,ENE,60,0.0,15.0,58,0.00,,,0.00,Weather View 32 v70,2013-03-11 02:59:00,
2013-03-10 23:04:00,51.1,36.8,30.09,NE,38,4.0,15.0,58,0.00,,,0.00,Weather View 32 v70,2013-03-11 03:04:00,
2013-03-10 23:09:00,51.1,37.2,30.09,ESE,105,4.0,15.0,59,0.00,,,0.00,Weather View 32 v70,2013-03-11 03:09:00,
2013-03-10 23:14:00,51.0,37.2,30.10,NE,44,0.0,15.0,59,0.00,,,0.00,Weather View 32 v70,2013-03-11 03:14:00,
2013-03-10 23:19:00,51.3,37.4,30.10,East,88,4.0,15.0,59,0.00,,,0.00,Weather View 32 v70,2013-03-11 03:19:00,
2013-03-10 23:24:00,51.4,37.5,30.10,ENE,58,4.0,10.0,59,0.00,,,0.00,Weather View 32 v70,2013-03-11 03:24:00,
2013-03-10 23:29:00,51.6,37.3,30.10,NW,313,0.0,10.0,58,0.00,,,0.00,Weather View 32 v70,2013-03-11 03:29:00,
2013-03-10 23:34:00,51.6,37.3,30.09,ENE,76,3.0,10.0,58,0.00,,,0.00,Weather View 32 v70,2013-03-11 03:34:00,
2013-03-10 23:39:00,51.4,37.5,30.09,NNE,31,2.0,10.0,59,0.00,,,0.00,Weather View 32 v70,2013-03-11 03:39:00,
2013-03-10 23:44:00,51.1,37.7,30.09,NW,305,0.0,10.0,60,0.00,,,0.00,Weather View 32 v70,2013-03-11 03:44:00,
2013-03-10 23:49:00,50.9,37.5,30.09,SW,223,4.0,10.0,60,0.00,,,0.00,Weather View 32 v70,2013-03-11 03:49:00,
2013-03-10 23:54:00,50.7,37.7,30.09,WSW,247,0.0,10.0,61,0.00,,,0.00,Weather View 32 v70,2013-03-11 03:54:00,
2013-03-10 23:59:00,50.8,37.8,30.09,NE,46,2.0,10.0,61,0.00,,,0.00,Weather View 32 v70,2013-03-11 03:59:00,